FW7632 Weather Reports


Display with metric or nautical units.
time (UTC)temp
F
wind
direction
speed
MPH
gust
MPH
rain 1hr
in
rain 24hr
in
rain mn
in
humidity
%
barometer
mb
20260508234545 55 129 0.0 3.0 0.00 0.00 0.00 48 1009.6
20260508233042 55 133 1.0 3.0 0.00 0.00 0.00 47 1009.4
20260508231536 55 109 0.0 3.0 0.00 0.00 0.00 45 1009.3
20260508230031 56 51 0.0 4.0 0.00 0.00 0.00 43 1009.3
20260508224527 56 70 4.0 8.0 0.00 0.00 0.00 43 1009.3
20260508223023 57 86 3.0 7.0 0.00 0.00 0.00 43 1009.3
20260508221518 57 17 2.0 8.0 0.00 0.00 0.00 42 1009.2
20260508220013 58 360 1.0 9.0 0.00 0.00 0.00 40 1009.3
20260508214522 58 16 3.0 9.0 0.00 0.00 0.00 40 1009.3
20260508213005 58 360 1.0 9.0 0.00 0.00 0.00 41 1009.4
20260508211603 59 311 4.0 10.0 0.00 0.00 0.00 39 1009.4
20260508210056 59 292 3.0 9.0 0.00 0.00 0.00 40 1009.6
20260508204553 58 319 8.0 14.0 0.00 0.00 0.00 40 1009.8
20260508203048 58 272 2.0 10.0 0.00 0.00 0.00 40 1010.0
20260508201543 61 360 4.0 10.0 0.00 0.00 0.00 38 1010.1
20260508200039 60 265 3.0 10.0 0.00 0.00 0.00 39 1010.1
20260508194534 58 310 4.0 12.0 0.00 0.00 0.00 40 1010.4
20260508193030 59 338 5.0 12.0 0.00 0.00 0.00 40 1010.5
20260508191529 58 9 4.0 15.0 0.00 0.00 0.00 43 1010.8
20260508190020 57 11 3.0 14.0 0.00 0.00 0.00 44 1011.0
20260508184521 55 28 3.0 9.0 0.00 0.00 0.00 46 1011.2
20260508183012 54 111 5.0 12.0 0.00 0.00 0.00 47 1011.4
20260508181507 55 294 7.0 12.0 0.00 0.00 0.00 46 1011.5
20260508180003 55 288 3.0 7.0 0.00 0.00 0.00 44 1011.6
20260508174600 55 278 3.0 8.0 0.00 0.00 0.00 43 1011.7
20260508173053 54 275 2.0 8.0 0.00 0.00 0.00 33 1011.9
20260508171549 53 267 5.0 10.0 0.00 0.00 0.00 21 1012.0
20260508170044 51 329 2.0 6.0 0.00 0.00 0.00 1 1012.1
20260508164540 50 315 2.0 5.0 0.00 0.00 0.00 1 1012.2
20260508163048 46 321 3.0 9.0 0.00 0.00 0.00 1 1012.2
20260508161546 45 25 5.0 16.0 0.00 0.00 0.00 1 1012.3
20260508160026 46 345 4.0 11.0 0.00 0.00 0.00 1 1012.3
20260508154526 46 348 2.0 9.0 0.00 0.00 0.00 1 1012.0
20260508153032 46 17 4.0 9.0 0.00 0.00 0.00 1 1011.7
20260508151514 45 326 2.0 5.0 0.00 0.00 0.00 1 1011.7
20260508150010 44 342 3.0 6.0 0.00 0.00 0.00 1 1011.7
20260508144508 44 302 1.0 6.0 0.00 0.00 0.00 1 1011.9
20260508143118 43 257 1.0 4.0 0.00 0.00 0.00 1 1011.8
20260508141604 44 341 1.0 4.0 0.00 0.00 0.00 1 1011.8
20260508140105 44 346 2.0 6.0 0.00 0.00 0.00 1 1011.8
20260508134547 44 327 2.0 5.0 0.00 0.00 0.00 1 1011.6
20260508133042 44 266 1.0 4.0 0.00 0.00 0.00 1 1011.2
20260508131538 44 235 0.0 3.0 0.00 0.00 0.00 1 1011.1
20260508130033 44 252 1.0 3.0 0.00 0.00 0.00 1 1011.1
20260508124532 44 252 1.0 3.0 0.00 0.00 0.00 1 1010.9
20260508123027 44 252 0.0 3.0 0.00 0.00 0.00 1 1011.0
20260508121520 43 252 0.0 1.0 0.00 0.00 0.00 1 1011.0
20260508120016 43 252 1.0 2.0 0.00 0.00 0.00 1 1011.1
20260508114511 43 252 0.0 2.0 0.00 0.00 0.00 1 1011.0
20260508113007 42 253 0.0 2.0 0.00 0.00 0.00 1 1011.3
20260508111505 42 252 0.0 1.0 0.00 0.00 0.00 1 1011.3
20260508110105 41 253 1.0 2.0 0.00 0.00 0.00 1 1011.2
20260508104554 41 253 0.0 2.0 0.00 0.00 0.00 1 1011.0
20260508103051 40 252 1.0 3.0 0.00 0.00 0.00 1 1011.2
20260508101545 40 251 0.0 1.0 0.00 0.00 0.00 1 1011.3
20260508100058 39 251 0.0 1.0 0.00 0.00 0.00 1 1011.2
20260508094541 39 251 0.0 2.0 0.00 0.00 0.00 1 1011.4
20260508093037 39 251 0.0 0.0 0.00 0.00 0.00 1 1011.1
20260508091528 40 251 0.0 1.0 0.00 0.00 0.00 1 1010.9
20260508090026 40 251 1.0 3.0 0.00 0.00 0.00 1 1010.9
20260508084518 41 250 0.0 3.0 0.00 0.00 0.00 1 1010.6
20260508083013 41 252 1.0 3.0 0.00 0.00 0.00 1 1010.8
20260508081510 42 252 1.0 5.0 0.00 0.00 0.00 1 1010.5
20260508080006 42 249 2.0 6.0 0.00 0.00 0.00 1 1010.4
20260508074608 42 232 3.0 7.0 0.00 0.00 0.00 1 1010.1
20260508073105 42 239 2.0 5.0 0.00 0.00 0.00 1 1010.4
20260508071552 43 261 2.0 7.0 0.00 0.00 0.00 1 1010.4
20260508070048 43 250 2.0 5.0 0.00 0.00 0.00 1 1010.3
20260508064546 43 232 1.0 3.0 0.00 0.00 0.00 1 1010.2
20260508063041 43 232 0.0 4.0 0.00 0.00 0.00 1 1010.1
20260508061536 44 232 1.0 4.0 0.00 0.00 0.00 1 1010.1
20260508060039 44 232 0.0 3.0 0.00 0.00 0.00 1 1010.0
20260508054604 44 232 1.0 5.0 0.00 0.00 0.00 1 1010.0
20260508053030 45 232 1.0 4.0 0.00 0.00 0.00 15 1010.2
20260508051519 46 232 2.0 4.0 0.00 0.00 0.00 27 1010.2
20260508050015 46 232 2.0 4.0 0.00 0.00 0.00 35 1010.3
20260508044513 47 232 2.0 4.0 0.00 0.00 0.00 43 1010.4
20260508043012 47 232 1.0 5.0 0.00 0.00 0.00 48 1010.5
20260508041512 46 235 2.0 7.0 0.00 0.00 0.00 50 1010.5
20260508040003 46 281 0.0 2.0 0.00 0.00 0.00 46 1010.4
20260508034559 46 281 1.0 4.0 0.00 0.00 0.00 43 1010.3
20260508033054 46 122 1.0 2.0 0.00 0.00 0.00 44 1010.0
20260508031555 46 123 0.0 2.0 0.00 0.00 0.00 47 1009.9
20260508030047 46 122 0.0 2.0 0.00 0.00 0.00 51 1009.8
20260508024547 47 122 1.0 2.0 0.00 0.00 0.00 53 1009.5
20260508023037 47 122 0.0 3.0 0.00 0.00 0.00 53 1009.3
20260508021534 47 124 2.0 5.0 0.00 0.00 0.00 53 1009.3
20260508020031 48 56 2.0 5.0 0.00 0.00 0.00 52 1009.3
20260508014534 48 62 1.0 5.0 0.00 0.00 0.00 52 1009.1
20260508013022 48 350 1.0 3.0 0.00 0.00 0.00 50 1008.9
20260508011516 49 350 0.0 1.0 0.00 0.00 0.00 51 1008.9
20260508010024 49 350 0.0 2.0 0.00 0.00 0.00 51 1008.8
20260508004518 50 350 0.0 1.0 0.00 0.00 0.00 51 1008.7
20260508003002 51 333 0.0 5.0 0.00 0.00 0.00 50 1008.5
20260508001602 52 348 1.0 4.0 0.00 0.00 0.00 49 1008.5
20260508000055 52 17 2.0 8.0 0.00 0.00 0.00 48 1008.4